Provo, UT

2:43 PM MST on December 09, 2019 (GMT -0700)
Provo Municipal

Weather History for KPVU - October, 2019

Change the Weather History Date:

Monday, October 28, 2019

  Actual Average Record
Temperature  
Mean Temperature 31 °F -  
Max Temperature 39 °F 52 °F 78 °F (1990)
Min Temperature 25 °F 31 °F 24 °F (2011)
Degree Days  
Heating Degree Days 34    
Moisture  
Dew Point 14 °F    
Average Humidity 50    
Maximum Humidity 70    
Minimum Humidity 33    
Precipitation  
Precipitation 0.00 in - - ()
Sea Level Pressure  
Sea Level Pressure 30.13 in    
Wind  
Wind Speed 7 mph (NNE)    
Max Wind Speed 17 mph    
Max Gust Speed -    
Visibility 10 miles    
Events      
Averages and records for this station are not official NWS values.
T = Trace of Precipitation, MM = Missing Value Source: NWS Daily Summary

Daily Weather History Graph

Daily Weather History Graph

Search for Another Location

Airport or City:

Astronomy

Oct. 28, 2019 Rise Set
Actual Time 7:51 AM MDT 6:29 PM MDT
Civil Twilight 7:23 AM MDT 6:57 PM MDT
Nautical Twilight 6:51 AM MDT 7:28 PM MDT
Astronomical Twilight 6:20 AM MDT 8:00 PM MDT
Moon 8:17 AM MDT (10/28) 7:16 PM MDT (10/28)
Length of Visible Light 11h 33m
Length of Day
10h 37m
New Moon, 1% of the Moon is Illuminated
Oct 28
New Moon
Nov 4
First Quarter
Nov 12
Full
Nov 19
Last Quarter
Nov 26
New

Hourly Weather History & Observations

Time (MDT) Temp. Windchill Dew Point Humidity Pressure Visibility Wind Dir Wind Speed Gust Speed Precip Events Conditions
12:56 AM 28.9 °F 23.9 °F 18.0 °F 64% 30.17 in 10.0 mi North 4.6 mph - N/A   Partly Cloudy
1:56 AM 28.0 °F 20.8 °F 18.0 °F 66% 30.17 in 10.0 mi North 6.9 mph - N/A   Partly Cloudy
2:56 AM 27.0 °F 19.5 °F 17.1 °F 66% 30.18 in 10.0 mi North 6.9 mph - N/A   Mostly Cloudy
3:18 AM 26.6 °F 20.0 °F 15.8 °F 64% 30.12 in 10.0 mi North 5.8 mph - N/A   Mostly Cloudy
3:56 AM 28.0 °F 19.3 °F 16.0 °F 61% 30.19 in 10.0 mi North 9.2 mph - N/A   Overcast
4:56 AM 27.0 °F 18.0 °F 12.9 °F 56% 30.19 in 10.0 mi NNW 9.2 mph - N/A   Partly Cloudy
5:56 AM 27.0 °F 14.3 °F 14.0 °F 58% 30.20 in 10.0 mi NW 17.3 mph - N/A   Clear
6:56 AM 26.1 °F 16.8 °F 12.9 °F 58% 30.23 in 10.0 mi WNW 9.2 mph - N/A   Partly Cloudy
7:56 AM 25.0 °F 20.7 °F 12.0 °F 58% 30.26 in 10.0 mi NE 3.5 mph - N/A   Partly Cloudy
8:56 AM 26.1 °F 20.5 °F 15.1 °F 63% 30.27 in 10.0 mi Variable 4.6 mph - N/A   Partly Cloudy
9:56 AM 28.9 °F 25.2 °F 15.1 °F 56% 30.27 in 10.0 mi SSE 3.5 mph - N/A   Clear
10:56 AM 30.0 °F 23.2 °F 15.1 °F 54% 30.25 in 10.0 mi SW 6.9 mph - N/A   Partly Cloudy
10:58 AM 30.0 °F 24.1 °F 15.1 °F 54% 30.25 in 10.0 mi Variable 5.8 mph - N/A   Partly Cloudy
11:56 AM 32.0 °F 25.6 °F 12.0 °F 44% 30.23 in 10.0 mi South 6.9 mph - N/A   Partly Cloudy
12:56 PM 34.0 °F 31.0 °F 12.9 °F 42% 30.20 in 10.0 mi Variable 3.5 mph - N/A   Partly Cloudy
1:56 PM 36.0 °F 29.6 °F 12.0 °F 37% 30.16 in 10.0 mi ESE 8.1 mph - N/A   Scattered Clouds
2:56 PM 37.9 °F 30.5 °F 12.0 °F 35% 30.11 in 10.0 mi ESE 11.5 mph - N/A   Mostly Cloudy
3:56 PM 37.9 °F 30.5 °F 10.9 °F 33% 30.08 in 10.0 mi SE 11.5 mph - N/A   Mostly Cloudy
4:56 PM 37.9 °F 33.5 °F 10.9 °F 33% 30.05 in 10.0 mi East 5.8 mph - N/A   Overcast
5:56 PM 37.0 °F 32.4 °F 12.9 °F 37% 30.03 in 10.0 mi East 5.8 mph - N/A   Overcast
6:56 PM 36.0 °F 33.3 °F 14.0 °F 41% 30.01 in 10.0 mi East 3.5 mph - N/A   Overcast
7:56 PM 35.1 °F 32.2 °F 15.1 °F 44% 30.00 in 10.0 mi East 3.5 mph - N/A   Overcast
8:56 PM 36.0 °F 32.1 °F 14.0 °F 41% 29.97 in 10.0 mi NNE 4.6 mph - N/A   Overcast
9:56 PM 37.0 °F 34.5 °F 10.0 °F 33% 29.96 in 10.0 mi NNW 3.5 mph - N/A   Overcast
10:56 PM 37.0 °F 28.5 °F 17.1 °F 44% 29.95 in 10.0 mi NNW 13.8 mph - N/A   Overcast
11:56 PM 34.0 °F 25.0 °F 25.0 °F 70% 29.95 in 10.0 mi NW 12.7 mph - N/A   Overcast